Location: Arbon
(43.0005°N, 0.7472°E)
Time: 02:12:40
(UTC+00:00)

Meteor 2-9 Rocket - Pass Details

Date: 07 August 2020
Orbit: 792 x 895 km, 81.3° (Epoch: 19 September)

Event Time Altitude Azimuth Distance (km) Brightness Sun altitude
Exits shadow 00:41:28 68° 340° (NNW) 904 4.4 -30.0°
Drops below altitude 10° 00:46:29 10° 8° (N) 2,496 7.6 -29.8°
Sets 00:48:57 0° 9° (N) 3,453 8.6 -29.7°
